[[{"header":{"parameterUnit":"m.s-1","parameterCategory":1,"la1":30.2991,"la2":30.254,"lo1":-89.0895,"lo2":-89.0444,"dy":0.0017,"dx":0.0017,"nx":28,"ny":28,"refTime":"2024-02-18T03:00:00:Z","depth":0,"parameterNumber":2,"parameterNumberName":"U-component_of_WINDS"},"data":[0,0,0,0,0,0,0,0,0,0,0,0,0,0,0,0,0,0,0,0,0,0,0,0,0,0,0,0,0,0,0,0,0,0,0,0,0,0,0,0,0,0,0,0,0,0,0,0,0,0,0,0,0,0,0,0,0,0,-0.1987,-0.1988,0,-0.2064,-0.2065,-0.2066,-0.2061,-0.2059,-0.2058,-0.2057,-0.2139,-0.2142,-0.2145,0,0,0,0,0,0,0,0,0,0,0,0,0,-0.1837,-0.1839,-0.1987,-0.1988,-0.1989,-0.2064,-0.2065,-0.2066,-0.2061,-0.2059,-0.2058,-0.2057,-0.2137,-0.2141,-0.2145,0,0,0,0,0,0,0,0,0,0,0,0,0,-0.1907,-0.184,-0.1987,-0.1995,-0.1997,-0.2064,-0.2065,-0.2066,-0.2061,-0.2059,-0.2058,-0.2056,-0.2136,-0.2141,-0.2146,-0.221,0,0,-0.2161,-0.2163,0,0,0,0,0,0,0,0,-0.1903,-0.1912,-0.1993,-0.1995,-0.1997,-0.2051,-0.2042,-0.2115,-0.2061,-0.2037,-0.2057,-0.2055,-0.2111,-0.2118,-0.2136,-0.2214,-0.2217,-0.2161,-0.2164,-0.2166,-0.2167,0,0,0,0,0,0,0,-0.1898,-0.1909,-0.2018,-0.1994,-0.1996,-0.1996,-0.2004,-0.2056,-0.2083,-0.2039,-0.2039,-0.2048,-0.2112,-0.2131,-0.2138,-0.2219,-0.2161,-0.2165,-0.2168,-0.217,-0.2353,-0.2355,0,0,0,0,0,0,-0.1891,-0.1905,-0.2015,-0.202,-0.1944,-0.2,-0.2009,-0.2035,-0.2082,-0.2087,-0.2049,-0.2047,-0.2124,-0.2132,-0.2141,-0.222,-0.2166,-0.2171,-0.2173,-0.2351,-0.2353,-0.2356,0,0,0,0,0,0,-0.1888,-0.1901,-0.2012,-0.1962,-0.1976,-0.2004,-0.2034,-0.2038,-0.2057,-0.209,-0.2095,-0.2064,-0.2123,-0.2134,-0.2193,-0.2223,-0.2173,-0.2177,-0.2349,-0.2352,-0.2355,-0.2378,0,0,0,0,0,0,-0.1883,-0.19,-0.1924,-0.1963,-0.1979,-0.2062,-0.2036,-0.204,-0.2066,-0.2064,-0.2105,-0.2111,-0.2122,-0.2186,-0.2198,-0.2228,-0.2181,-0.2346,-0.235,-0.2354,-0.2375,-0.2382,-0.2387,0,0,0,0,0,-0.1878,-0.1928,-0.1925,-0.1939,-0.201,-0.2064,-0.2073,-0.2085,-0.2068,-0.2093,-0.2114,-0.2109,-0.2217,-0.2192,-0.2205,-0.2238,-0.2345,-0.2349,-0.2353,-0.2372,-0.238,-0.2387,0,0,0,0,0,0,-0.1894,-0.1934,-0.1931,-0.1995,-0.2026,-0.2063,-0.2095,-0.2094,-0.2131,-0.2128,-0.2141,-0.2151,-0.221,-0.2229,-0.2201,-0.2302,-0.2278,-0.2286,-0.2288,-0.2296,-0.2302,-0.2297,-0.2185,0,0,0,0,0,-0.1904,-0.1944,-0.1977,-0.203,-0.2046,-0.2068,-0.2092,-0.2098,-0.2131,-0.2145,-0.2169,-0.2202,-0.2243,-0.227,-0.231,-0.2377,-0.2386,-0.2406,-0.2412,-0.2417,-0.2424,-0.2461,-0.247,-0.237,-0.237,-0.237,0,0,-0.1927,-0.1954,-0.1979,-0.2034,-0.2059,-0.2101,-0.2079,-0.2124,-0.2155,-0.2152,-0.2209,-0.2228,-0.2265,-0.2328,-0.2357,-0.2347,-0.2453,-0.2422,-0.2426,-0.243,-0.2466,-0.2476,-0.2484,-0.2373,-0.2372,-0.2372,0,0,-0.1991,-0.2014,-0.2062,-0.2087,-0.2124,-0.2138,-0.2149,-0.2186,-0.2199,-0.2256,-0.2254,-0.2291,-0.2361,-0.2388,-0.2411,-0.2483,-0.2481,-0.2495,-0.2529,-0.2564,-0.2572,-0.258,-0.2606,-0.2616,-0.2502,-0.2502,-0.2502,0,-0.2015,-0.2077,-0.2087,-0.2132,-0.2157,-0.2154,-0.2202,-0.2226,-0.2275,-0.2292,-0.2278,-0.2366,-0.2391,-0.2461,-0.2478,-0.2496,-0.251,-0.2492,-0.257,-0.2578,-0.2584,-0.261,-0.262,-0.2503,-0.2503,-0.2503,-0.2503,0,-0.2106,-0.2149,-0.2183,-0.2229,-0.2257,-0.2304,-0.232,-0.2348,-0.2351,-0.2366,-0.2425,-0.2454,-0.25,-0.2516,-0.252,-0.2586,-0.2578,-0.2567,-0.2544,-0.2595,-0.262,-0.263,-0.2506,-0.2505,-0.2505,-0.2504,0,0,-0.2184,-0.2233,-0.2246,-0.2267,-0.2307,-0.2341,-0.2387,-0.243,-0.2454,-0.2487,-0.2527,-0.2585,-0.2575,-0.2601,-0.2608,-0.2639,-0.2695,-0.2624,-0.2625,-0.2638,-0.2771,-0.278,-0.2791,-0.2692,-0.2694,-0.2696,-0.2768,0,-0.2253,-0.2335,-0.2344,-0.2417,-0.2457,-0.2453,-0.2494,-0.2523,-0.2538,-0.2574,-0.2591,-0.2633,-0.2616,-0.2631,-0.2662,-0.2682,-0.2722,-0.2676,-0.2731,-0.2733,-0.2724,-0.2804,-0.2814,-0.2881,-0.2777,-0.2779,-0.278,0,-0.2345,-0.238,-0.2457,-0.2491,-0.2508,-0.2544,-0.2585,-0.2619,-0.2652,-0.266,-0.2688,-0.269,-0.2738,-0.2711,-0.2778,-0.2746,-0.2769,-0.2781,-0.2784,-0.2792,-0.2761,-0.2815,-0.2903,-0.2914,-0.2795,-0.2794,-0.2793,0,-0.2397,-0.2462,-0.2517,-0.2535,-0.2575,-0.2601,-0.2619,-0.265,-0.2675,-0.271,-0.2727,-0.2767,-0.279,-0.2821,-0.2834,-0.2813,-0.2901,-0.2874,-0.291,-0.291,-0.2931,-0.293,-0.3025,-0.2942,-0.2942,-0.2942,-0.2941,0,-0.2474,-0.2522,-0.2541,-0.2575,-0.2627,-0.2637,-0.2689,-0.2706,-0.2733,-0.2771,-0.2769,-0.2805,-0.2819,-0.2856,-0.2866,-0.292,-0.293,-0.2939,-0.2942,-0.2941,-0.294,-0.2958,-0.2954,-0.2944,-0.2944,-0.2943,-0.2943,0,-0.2542,-0.2556,-0.2615,-0.2648,-0.2657,-0.2695,-0.2724,-0.2757,-0.277,-0.2817,-0.2829,-0.2851,-0.2895,-0.291,-0.2963,-0.297,-0.3033,-0.3031,-0.3022,-0.3024,-0.3059,-0.3057,-0.3171,-0.3187,-0.3091,-0.3092,-0.3093,0,-0.2591,-0.2628,-0.2664,-0.2688,-0.2707,-0.2747,-0.2772,-0.2782,-0.2809,-0.2848,-0.2877,-0.292,-0.2955,-0.3025,-0.3046,-0.3087,-0.3087,-0.3124,-0.3093,-0.3091,-0.3089,-0.3088,-0.3092,-0.3131,-0.3132,-0.3133,-0.3133,0,-0.2679,-0.2683,-0.272,-0.2759,-0.2789,-0.282,-0.2851,-0.2871,-0.2885,-0.2915,-0.296,-0.2987,-0.3041,-0.3084,-0.3125,-0.3144,-0.3142,-0.3142,-0.3153,-0.3154,-0.3148,-0.3153,-0.304,-0.314,-0.314,-0.3139,-0.3139,-0.3138,-0.274,-0.2772,-0.2803,-0.2843,-0.2866,-0.2894,-0.2927,-0.2944,-0.2981,-0.3025,-0.3028,-0.3076,-0.3107,-0.3162,-0.3183,-0.3221,-0.3211,-0.3226,-0.323,-0.3235,-0.3238,-0.3139,-0.3228,-0.3228,-0.3228,-0.3228,-0.3228,0,-0.2829,-0.2847,-0.2884,-0.2926,-0.2958,-0.2951,-0.2983,-0.3011,-0.3053,-0.3082,-0.3116,-0.3167,-0.3208,-0.3231,-0.3273,-0.3299,-0.3299,-0.331,-0.3309,-0.3314,-0.3244,-0.3231,-0.3309,-0.3309,-0.3309,-0.3309,-0.3309,-0.3309,-0.2879,-0.2933,-0.2941,-0.3007,-0.3025,-0.3072,-0.3091,-0.3117,-0.314,-0.3196,-0.3231,-0.3245,-0.3271,-0.3315,-0.3352,-0.3358,-0.3374,-0.3387,-0.3392,-0.3327,-0.3319,-0.3311,-0.3299,-0.339,-0.339,-0.3458,-0.3459,-0.3459]},{"header":{"parameterUnit":"m.s-1","parameterCategory":1,"la1":30.2991,"la2":30.254,"lo1":-89.0895,"lo2":-89.0444,"dy":0.0017,"dx":0.0017,"nx":28,"ny":28,"refTime":"2024-02-18T03:00:00:Z","depth":0,"parameterNumber":3,"parameterNumberName":"V-component_of_WINDS"},"data":[0,0,0,0,0,0,0,0,0,0,0,0,0,0,0,0,0,0,0,0,0,0,0,0,0,0,0,0,0,0,0,0,0,0,0,0,0,0,0,0,0,0,0,0,0,0,0,0,0,0,0,0,0,0,0,0,0,0,-4.9,-4.9002,0,-4.9142,-4.9143,-4.9145,-4.9088,-4.9084,-4.9081,-4.9078,-4.922,-4.9226,-4.9233,0,0,0,0,0,0,0,0,0,0,0,0,0,-4.8675,-4.8681,-4.9,-4.9002,-4.9003,-4.9142,-4.9144,-4.9145,-4.9088,-4.9084,-4.908,-4.9076,-4.9217,-4.9226,-4.9234,0,0,0,0,0,0,0,0,0,0,0,0,0,-4.8816,-4.8683,-4.9,-4.8992,-4.8992,-4.9141,-4.9144,-4.9146,-4.9089,-4.9084,-4.9079,-4.9074,-4.9215,-4.9225,-4.9235,-4.9399,0,0,-4.9267,-4.9271,0,0,0,0,0,0,0,0,-4.8809,-4.8828,-4.8991,-4.8992,-4.8993,-4.9092,-4.9081,-4.9231,-4.909,-4.9052,-4.9078,-4.9072,-4.9181,-4.9194,-4.9231,-4.9406,-4.9412,-4.9267,-4.9274,-4.9278,-4.9281,0,0,0,0,0,0,0,-4.8799,-4.8822,-4.9056,-4.8993,-4.8995,-4.8979,-4.8994,-4.9109,-4.9143,-4.9055,-4.9051,-4.9069,-4.9181,-4.9222,-4.9234,-4.9414,-4.9267,-4.9276,-4.9283,-4.9287,-4.9728,-4.9733,0,0,0,0,0,0,-4.8789,-4.8814,-4.9051,-4.906,-4.8887,-4.8989,-4.9006,-4.9065,-4.9142,-4.9148,-4.9073,-4.9066,-4.9206,-4.9222,-4.9239,-4.9435,-4.9278,-4.9288,-4.9294,-4.9723,-4.9729,-4.9735,0,0,0,0,0,0,-4.8783,-4.8811,-4.9046,-4.8936,-4.8965,-4.9,-4.9068,-4.9071,-4.9112,-4.9155,-4.916,-4.9109,-4.9203,-4.9224,-4.936,-4.9439,-4.9292,-4.9302,-4.9716,-4.9725,-4.9732,-4.983,0,0,0,0,0,0,-4.8773,-4.8809,-4.8873,-4.8938,-4.8971,-4.9166,-4.9073,-4.9077,-4.913,-4.9122,-4.919,-4.9197,-4.9201,-4.9344,-4.937,-4.9451,-4.931,-4.9709,-4.972,-4.973,-4.982,-4.9841,-4.9858,0,0,0,0,0,-4.8762,-4.8894,-4.8876,-4.8905,-4.9052,-4.917,-4.9189,-4.9192,-4.9137,-4.92,-4.9228,-4.9195,-4.9427,-4.9359,-4.9387,-4.9472,-4.9704,-4.9717,-4.9729,-4.9811,-4.9837,-4.9858,0,0,0,0,0,0,-4.8837,-4.8903,-4.8884,-4.9041,-4.9101,-4.9161,-4.9241,-4.9219,-4.9295,-4.9284,-4.9283,-4.9299,-4.9438,-4.9468,-4.9392,-4.9634,-4.9557,-4.9575,-4.961,-4.9634,-4.9653,-4.9643,-4.9319,0,0,0,0,0,-4.8872,-4.8964,-4.9016,-4.915,-4.9181,-4.9206,-4.9258,-4.9255,-4.9316,-4.934,-4.9378,-4.9438,-4.9523,-4.958,-4.9662,-4.9823,-4.9837,-4.9896,-4.9915,-4.9931,-4.9947,-5.0033,-5.006,-4.9776,-4.9776,-4.9776,0,0,-4.8944,-4.8992,-4.905,-4.9166,-4.9212,-4.9305,-4.9227,-4.933,-4.94,-4.9355,-4.9486,-4.9515,-4.9581,-4.973,-4.9798,-4.976,-5.0028,-4.9947,-4.9959,-4.9967,-5.0049,-5.0076,-5.01,-4.9784,-4.9783,-4.9782,0,0,-4.9125,-4.9171,-4.9287,-4.9334,-4.9405,-4.9421,-4.9448,-4.9512,-4.953,-4.9661,-4.9629,-4.971,-4.9859,-4.9907,-4.9951,-5.0149,-5.012,-5.0175,-5.0276,-5.036,-5.0383,-5.0403,-5.0472,-5.0497,-5.0191,-5.0191,-5.0192,0,-4.9207,-4.9348,-4.9349,-4.9455,-4.9506,-4.9471,-4.9588,-4.9633,-4.9726,-4.9762,-4.9718,-4.9904,-4.9946,-5.0105,-5.0153,-5.019,-5.022,-5.0168,-5.038,-5.04,-5.0418,-5.0484,-5.0511,-5.0198,-5.0197,-5.0196,-5.0196,0,-4.9444,-4.9543,-4.9628,-4.972,-4.978,-4.9891,-4.9907,-4.9968,-4.996,-4.9979,-5.0112,-5.0161,-5.0252,-5.0289,-5.0281,-5.0447,-5.0421,-5.0379,-5.0301,-5.0451,-5.0514,-5.0539,-5.0207,-5.0204,-5.0202,-5.0201,0,0,-4.9678,-4.9768,-4.9799,-4.984,-4.9914,-4.9989,-5.0097,-5.0187,-5.0239,-5.0304,-5.0393,-5.0519,-5.0481,-5.053,-5.0527,-5.0601,-5.0753,-5.055,-5.0551,-5.0586,-5.0938,-5.0969,-5.0998,-5.0735,-5.074,-5.0743,-5.0932,0,-4.9864,-5.0055,-5.0058,-5.0233,-5.0323,-5.029,-5.0384,-5.0439,-5.046,-5.0538,-5.056,-5.065,-5.0592,-5.0622,-5.0694,-5.072,-5.0824,-5.0706,-5.0817,-5.0821,-5.0802,-5.1031,-5.1065,-5.124,-5.0956,-5.096,-5.0963,0,-5.0107,-5.0181,-5.0365,-5.0425,-5.0463,-5.0548,-5.0629,-5.0705,-5.0766,-5.0775,-5.0831,-5.0816,-5.0924,-5.0843,-5.0991,-5.0911,-5.0956,-5.0976,-5.0982,-5.0993,-5.0902,-5.1048,-5.1297,-5.1323,-5.1002,-5.0999,-5.0996,0,-5.0258,-5.0403,-5.0531,-5.0567,-5.0641,-5.0701,-5.0734,-5.079,-5.0843,-5.0914,-5.0948,-5.103,-5.1075,-5.1138,-5.1145,-5.1085,-5.1294,-5.1213,-5.1304,-5.1304,-5.135,-5.1347,-5.161,-5.1379,-5.1379,-5.1378,-5.1378,0,-5.0466,-5.058,-5.06,-5.0679,-5.0805,-5.0807,-5.0931,-5.0959,-5.1009,-5.1091,-5.1067,-5.1145,-5.115,-5.1229,-5.1236,-5.1357,-5.1377,-5.1387,-5.1388,-5.139,-5.1388,-5.1419,-5.1407,-5.1385,-5.1384,-5.1382,-5.1381,0,-5.0656,-5.0675,-5.0813,-5.0871,-5.0888,-5.0978,-5.1027,-5.1102,-5.112,-5.1225,-5.1249,-5.1278,-5.137,-5.1383,-5.1491,-5.1494,-5.164,-5.1628,-5.162,-5.1618,-5.1708,-5.17,-5.2,-5.2039,-5.1784,-5.1786,-5.1788,0,-5.0788,-5.0875,-5.0942,-5.0996,-5.1033,-5.1121,-5.1175,-5.1179,-5.1236,-5.1311,-5.1376,-5.1466,-5.1538,-5.1686,-5.1715,-5.1797,-5.1786,-5.1886,-5.1798,-5.1797,-5.1787,-5.1782,-5.179,-5.1903,-5.1906,-5.1908,-5.191,0,-5.1019,-5.1024,-5.1103,-5.1186,-5.1252,-5.1317,-5.1378,-5.1423,-5.1435,-5.15,-5.1594,-5.165,-5.176,-5.1849,-5.193,-5.1962,-5.1938,-5.1937,-5.1962,-5.1965,-5.1957,-5.1962,-5.1666,-5.193,-5.1928,-5.1927,-5.1926,-5.1925,-5.1184,-5.1259,-5.1318,-5.1407,-5.1454,-5.1512,-5.1584,-5.1611,-5.1691,-5.1781,-5.1778,-5.1882,-5.1938,-5.2044,-5.2082,-5.2162,-5.2129,-5.2166,-5.2175,-5.2184,-5.2193,-5.1945,-5.2176,-5.2176,-5.2175,-5.2175,-5.2174,0,-5.1413,-5.145,-5.1532,-5.1618,-5.1688,-5.166,-5.1726,-5.1786,-5.1877,-5.1933,-5.2004,-5.2112,-5.2198,-5.2233,-5.2317,-5.2374,-5.2365,-5.2395,-5.2391,-5.2399,-5.2218,-5.2187,-5.2401,-5.2401,-5.2401,-5.2401,-5.2401,-5.2401,-5.1541,-5.1667,-5.1678,-5.1826,-5.1861,-5.1963,-5.2003,-5.2055,-5.2099,-5.2221,-5.2293,-5.2315,-5.2362,-5.2449,-5.2526,-5.2534,-5.2565,-5.2601,-5.2604,-5.2435,-5.2412,-5.239,-5.2361,-5.2608,-5.2609,-5.2779,-5.278,-5.2781]}]]